GW3716 Weather Reports


time (UTC)temp
C
wind
direction
speed
KPH
gust
KPH
rain 1hr
cm
rain 24hr
cm
rain mn
cm
humidity
%
barometer
mb
20260506151000 10 30 9.7 12.9 0.00 0.05 0.05 88 1012.5
20260506150456 10 24 11.3 12.9 0.00 0.05 0.05 88 1012.2
20260506145953 10 18 17.7 20.9 0.00 0.05 0.05 88 1012.1
20260506145449 10 16 20.9 29.0 0.00 0.05 0.05 88 1011.5
20260506144947 10 34 27.4 29.0 0.00 0.05 0.05 89 1011.5
20260506144444 10 18 12.9 16.1 0.00 0.05 0.05 89 1011.4
20260506143942 10 39 19.3 27.4 0.00 0.05 0.05 89 1011.4
20260506143438 10 22 17.7 17.7 0.00 0.05 0.05 89 1011.2
20260506142937 10 23 14.5 16.1 0.00 0.05 0.05 90 1011.0
20260506142435 10 25 19.3 22.5 0.00 0.05 0.05 90 1011.1
20260506141932 10 36 6.4 9.7 0.00 0.05 0.05 90 1011.3
20260506141430 10 32 12.9 12.9 0.00 0.05 0.05 90 1011.5
20260506140928 10 59 12.9 12.9 0.00 0.05 0.05 90 1011.4
20260506140425 10 36 14.5 20.9 0.00 0.05 0.05 90 1011.5
20260506135922 10 54 14.5 20.9 0.00 0.05 0.05 91 1011.7
20260506135419 10 138 9.7 12.9 0.00 0.05 0.05 91 1011.5
20260506134915 10 25 19.3 24.1 0.13 0.05 0.05 90 1011.4
20260506134411 10 7 16.1 22.5 0.30 0.05 0.05 90 1011.4
20260506133909 10 15 16.1 20.9 0.18 0.03 0.03 90 1011.2
20260506133405 10 40 17.7 22.5 0.18 0.03 0.03 89 1011.9
20260506132902 10 6 17.7 20.9 0.00 0.00 0.00 89 1013.0
20260506132359 10 35 8.0 9.7 0.00 0.00 0.00 88 1012.7
20260506131857 10 19 8.0 9.7 0.00 0.00 0.00 88 1012.2
20260506131353 10 37 11.3 12.9 0.00 0.00 0.00 87 1012.2
20260506130850 10 39 6.4 9.7 0.00 0.00 0.00 87 1012.1
20260506130346 10 39 14.5 17.7 0.00 0.00 0.00 86 1012.1
20260506125844 10 19 14.5 17.7 0.00 0.00 0.00 85 1012.3
20260506125343 10 31 12.9 16.1 0.00 0.00 0.00 85 1012.0
20260506124841 10 12 20.9 24.1 0.00 0.00 0.00 85 1011.1
20260506124337 10 34 12.9 16.1 0.00 0.00 0.00 84 1011.2
20260506123835 10 35 9.7 16.1 0.00 0.00 0.00 83 1011.1
20260506123333 10 22 6.4 6.4 0.00 0.00 0.00 82 1011.7
20260506122830 10 40 8.0 9.7 0.00 0.00 0.00 82 1011.2
20260506122327 10 38 11.3 16.1 0.00 0.00 0.00 82 1011.0
20260506121825 10 30 12.9 16.1 0.00 0.00 0.00 82 1011.1
20260506121322 10 40 17.7 20.9 0.00 0.00 0.00 82 1010.5
20260506120819 10 44 19.3 22.5 0.00 0.00 0.00 82 1010.9
20260506120317 10 17 17.7 22.5 0.00 0.00 0.00 82 1011.1
20260506115814 10 23 19.3 29.0 0.00 0.00 0.00 82 1011.1
20260506115313 10 20 12.9 16.1 0.00 0.00 0.00 82 1010.9
20260506114810 10 55 16.1 22.5 0.00 0.00 0.00 83 1010.3
20260506114308 10 49 11.3 16.1 0.00 0.00 0.00 82 1010.2
20260506113806 10 18 17.7 22.5 0.00 0.00 0.00 83 1010.2
20260506113303 10 17 14.5 17.7 0.00 0.00 0.00 82 1009.7
20260506112759 10 28 11.3 12.9 0.00 0.00 0.00 82 1009.4
20260506112257 10 55 14.5 22.5 0.00 0.00 0.00 82 1009.5
20260506111754 10 20 12.9 16.1 0.00 0.00 0.00 81 1009.6
20260506111252 10 6 20.9 24.1 0.00 0.00 0.00 81 1009.6
20260506110749 10 41 17.7 24.1 0.00 0.00 0.00 81 1009.5
20260506110247 10 24 16.1 22.5 0.00 0.00 0.00 81 1009.4
20260506105743 11 27 9.7 12.9 0.00 0.00 0.00 80 1009.5
20260506105240 11 36 14.5 17.7 0.00 0.00 0.00 80 1009.6
20260506104738 11 11 12.9 16.1 0.00 0.00 0.00 80 1009.5
20260506104235 11 10 24.1 29.0 0.00 0.00 0.00 81 1009.6
20260506103732 11 50 11.3 11.3 0.00 0.00 0.00 81 1009.5
20260506103229 11 22 11.3 11.3 0.00 0.00 0.00 81 1009.2
20260506102727 11 31 14.5 16.1 0.00 0.00 0.00 82 1009.4
20260506102225 11 35 14.5 24.1 0.00 0.00 0.00 82 1009.4
20260506101721 11 22 11.3 16.1 0.00 0.00 0.00 83 1009.3
20260506101218 11 37 9.7 12.9 0.00 0.00 0.00 83 1009.2
20260506100716 11 24 16.1 22.5 0.00 0.00 0.00 84 1009.1
20260506100214 11 14 14.5 17.7 0.00 0.00 0.00 85 1009.0
20260506095712 11 30 12.9 16.1 0.00 0.00 0.00 85 1008.9
20260506095209 11 27 14.5 20.9 0.00 0.00 0.00 85 1008.8
20260506094706 11 22 6.4 6.4 0.00 0.00 0.00 85 1008.6
20260506094204 11 28 19.3 22.5 0.00 0.00 0.00 84 1008.8
20260506093703 11 39 9.7 12.9 0.00 0.00 0.00 84 1008.7
20260506093159 11 29 9.7 12.9 0.00 0.00 0.00 84 1008.8
20260506092657 11 20 17.7 22.5 0.00 0.00 0.00 84 1008.6
20260506092154 11 35 9.7 12.9 0.00 0.00 0.00 84 1008.4
20260506091652 11 39 11.3 20.9 0.00 0.00 0.00 84 1008.3
20260506091149 11 24 14.5 16.1 0.00 0.00 0.00 83 1008.6
20260506090647 11 12 25.7 27.4 0.00 0.00 0.00 83 1008.4
20260506090143 11 20 9.7 12.9 0.00 0.00 0.00 83 1008.5
20260506085640 11 16 12.9 12.9 0.00 0.00 0.00 83 1008.6
20260506085136 11 52 6.4 6.4 0.00 0.00 0.00 83 1008.3
20260506084633 12 17 9.7 11.3 0.00 0.00 0.00 82 1008.3
20260506084130 12 16 4.8 6.4 0.00 0.00 0.00 82 1008.2
20260506083627 12 30 17.7 17.7 0.00 0.00 0.00 82 1008.1
20260506083124 12 35 8.0 11.3 0.00 0.00 0.00 81 1008.0
20260506082621 12 8 14.5 17.7 0.00 0.00 0.00 81 1008.3
20260506082116 12 26 9.7 12.9 0.00 0.00 0.00 81 1008.4
20260506081615 12 32 8.0 9.7 0.00 0.00 0.00 80 1008.0
20260506081112 12 23 11.3 16.1 0.00 0.00 0.00 80 1008.3
20260506080610 12 30 12.9 16.1 0.00 0.00 0.00 80 1008.4
20260506080106 12 40 16.1 20.9 0.00 0.00 0.00 79 1008.3
20260506073050 13 12 12.9 17.7 0.00 0.00 0.00 76 1008.3
20260506072547 13 30 8.0 11.3 0.00 0.00 0.00 76 1008.2
20260506072045 14 21 9.7 11.3 0.00 0.00 0.00 75 1008.3
20260506071542 14 44 11.3 16.1 0.00 0.00 0.00 74 1008.2
20260506071039 15 30 9.7 11.3 0.00 0.00 0.00 74 1008.3
20260506070536 15 38 8.0 9.7 0.00 0.00 0.00 73 1008.5
20260506062514 15 53 8.0 9.7 0.00 0.00 0.00 70 1008.1
20260506062010 15 41 9.7 11.3 0.00 0.00 0.00 69 1007.8
20260506061506 16 39 6.4 6.4 0.00 0.00 0.00 69 1008.0
20260506061004 16 51 3.2 4.8 0.00 0.00 0.00 68 1007.7
20260506060503 16 64 6.4 6.4 0.00 0.00 0.00 68 1007.6
20260506050931 17 51 6.4 11.3 0.00 0.00 0.00 63 1007.4
20260506050429 17 45 4.8 6.4 0.00 0.00 0.00 62 1007.5
20260506044919 18 17 12.9 16.1 0.00 0.00 0.00 62 1007.3
20260506044418 18 55 6.4 9.7 0.00 0.00 0.00 64 1007.4
20260506043914 18 53 9.7 12.9 0.00 0.00 0.00 65 1007.6
20260506043411 18 28 4.8 4.8 0.00 0.00 0.00 65 1007.7
20260506042909 18 113 4.8 6.4 0.00 0.00 0.00 64 1007.8
20260506042408 18 92 4.8 4.8 0.00 0.00 0.00 63 1007.7
20260506041906 19 46 8.0 11.3 0.00 0.00 0.00 62 1007.5
20260506041403 19 43 9.7 11.3 0.00 0.00 0.00 61 1007.5
20260506040900 19 25 4.8 6.4 0.00 0.00 0.00 61 1007.7
20260506040358 19 44 11.3 12.9 0.00 0.00 0.00 61 1007.4
20260506035854 20 21 8.0 9.7 0.00 0.00 0.00 61 1007.2
20260506035351 20 21 8.0 11.3 0.00 0.00 0.00 60 1006.9
20260506034848 20 44 4.8 4.8 0.00 0.00 0.00 60 1006.8
20260506034345 20 50 4.8 6.4 0.00 0.00 0.00 60 1006.8
20260506033842 20 38 6.4 9.7 0.00 0.00 0.00 59 1006.8
20260506033339 20 46 9.7 11.3 0.00 0.00 0.00 59 1006.9
20260506032836 20 25 8.0 9.7 0.00 0.00 0.00 59 1007.1
20260506032333 20 18 4.8 4.8 0.00 0.00 0.00 59 1007.0
20260506031830 20 30 6.4 6.4 0.00 0.00 0.00 58 1006.9
20260506031327 21 27 6.4 9.7 0.00 0.00 0.00 58 1006.9
20260506030825 21 45 3.2 4.8 0.00 0.00 0.00 58 1006.8
20260506030323 21 33 6.4 6.4 0.00 0.00 0.00 57 1006.6
20260506025819 21 56 9.7 11.3 0.00 0.00 0.00 56 1006.6
20260506025315 21 50 4.8 6.4 0.00 0.00 0.00 56 1006.6
20260506024813 21 38 6.4 9.7 0.00 0.00 0.00 56 1006.6
20260506024309 21 39 6.4 9.7 0.00 0.00 0.00 56 1006.5
20260506023806 21 25 9.7 11.3 0.00 0.00 0.00 56 1006.5
20260506023303 21 25 8.0 9.7 0.00 0.00 0.00 56 1006.4
20260506022759 22 53 8.0 12.9 0.00 0.00 0.00 55 1006.4
20260506022257 22 33 11.3 12.9 0.00 0.00 0.00 54 1006.3
20260506021755 22 11 9.7 9.7 0.00 0.00 0.00 54 1006.0
20260506021252 22 27 11.3 11.3 0.00 0.00 0.00 54 1006.0
20260506020748 22 6 12.9 12.9 0.00 0.00 0.00 54 1005.9
20260506020246 22 21 6.4 6.4 0.00 0.00 0.00 54 1005.6
20260506015744 23 25 8.0 9.7 0.00 0.00 0.00 53 1005.6
20260506015241 23 24 6.4 9.7 0.00 0.00 0.00 52 1005.5
20260506014738 23 9 6.4 9.7 0.00 0.00 0.00 51 1005.4
20260506014234 23 34 9.7 11.3 0.00 0.00 0.00 51 1005.4
20260506013732 24 25 14.5 16.1 0.00 0.00 0.00 50 1005.0
20260506013229 25 4 6.4 9.7 0.00 0.00 0.00 49 1005.2
20260506012725 25 23 12.9 16.1 0.00 0.00 0.00 47 1005.3
20260506012222 26 6 9.7 12.9 0.00 0.00 0.00 44 1004.9
20260506011719 26 5 6.4 6.4 0.00 0.00 0.00 41 1004.8
20260506011215 27 353 9.7 11.3 0.00 0.00 0.00 37 1004.4
20260506010714 28 25 1.6 1.6 0.00 0.00 0.00 28 1004.4
20260506010211 28 15 4.8 4.8 0.00 0.00 0.00 25 1004.5
20260506005708 28 350 9.7 11.3 0.00 0.00 0.00 24 1004.3
20260506005205 28 329 4.8 4.8 0.00 0.00 0.00 24 1004.1
20260506004701 29 268 4.8 4.8 0.00 0.00 0.00 24 1004.0
20260506004159 29 317 11.3 12.9 0.00 0.00 0.00 23 1004.1
20260506003654 28 290 8.0 9.7 0.00 0.00 0.00 28 1004.1
20260506003151 28 282 4.8 4.8 0.00 0.00 0.00 29 1003.8
20260506002647 28 242 3.2 4.8 0.00 0.00 0.00 30 1003.6
20260506002143 29 232 3.2 4.8 0.00 0.00 0.00 30 1003.6
20260506001638 29 258 3.2 4.8 0.00 0.00 0.00 27 1003.7
20260506001136 30 240 3.2 1.6 0.00 0.00 0.00 27 1003.4
20260506000633 30 238 3.2 4.8 0.00 0.00 0.00 26 1003.7
20260506000131 30 237 4.8 4.8 0.00 0.00 0.00 25 1003.6
20260505235629 30 230 4.8 4.8 0.00 0.00 0.00 24 1003.6
20260505235126 30 230 6.4 6.4 0.00 0.00 0.00 24 1003.7
20260505234622 30 235 11.3 12.9 0.00 0.00 0.00 22 1003.6
20260505234119 30 238 6.4 6.4 0.00 0.00 0.00 23 1003.6
20260505233617 31 252 8.0 9.7 0.00 0.00 0.00 24 1003.5
20260505233114 31 243 9.7 11.3 0.00 0.00 0.00 23 1003.5
20260505232612 31 268 4.8 4.8 0.00 0.00 0.00 24 1003.6
20260505232109 31 240 9.7 11.3 0.00 0.00 0.00 22 1003.6
20260505231606 32 247 12.9 12.9 0.00 0.00 0.00 21 1003.7
20260505231104 32 273 9.7 9.7 0.00 0.00 0.00 22 1003.7
20260505230602 32 270 9.7 11.3 0.00 0.00 0.00 22 1003.5
20260505230058 32 251 9.7 11.3 0.00 0.00 0.00 23 1003.8
20260505225555 32 253 6.4 9.7 0.00 0.00 0.00 25 1004.0
20260505225051 32 238 8.0 11.3 0.00 0.00 0.00 23 1003.8
20260505224548 32 256 11.3 12.9 0.00 0.00 0.00 23 1004.0
20260505224045 32 256 11.3 12.9 0.00 0.00 0.00 22 1003.9
20260505223542 32 276 16.1 17.7 0.00 0.00 0.00 22 1003.8
20260505223038 32 237 17.7 17.7 0.00 0.00 0.00 22 1004.0
20260505222534 32 237 20.9 22.5 0.00 0.00 0.00 23 1003.8
20260505222031 32 261 6.4 6.4 0.00 0.00 0.00 25 1003.5
20260505221528 32 257 14.5 17.7 0.00 0.00 0.00 23 1003.6
20260505221025 32 269 12.9 16.1 0.00 0.00 0.00 24 1003.7
20260505220522 32 232 14.5 16.1 0.00 0.00 0.00 24 1003.6
20260505220020 32 291 11.3 16.1 0.00 0.00 0.00 23 1003.8
20260505215518 32 264 17.7 22.5 0.00 0.00 0.00 24 1004.0
20260505215015 32 259 14.5 16.1 0.00 0.00 0.00 23 1003.9
20260505214513 32 268 19.3 22.5 0.00 0.00 0.00 22 1003.9
20260505214010 32 263 14.5 20.9 0.00 0.00 0.00 24 1003.9
20260505213508 32 223 14.5 16.1 0.00 0.00 0.00 24 1004.0
20260505213004 32 240 16.1 17.7 0.00 0.00 0.00 24 1004.3
20260505212500 32 262 22.5 27.4 0.00 0.00 0.00 24 1004.4
20260505211957 32 280 20.9 24.1 0.00 0.00 0.00 24 1004.0
20260505211454 32 282 12.9 16.1 0.00 0.00 0.00 27 1004.1
20260505210950 31 296 22.5 24.1 0.00 0.00 0.00 25 1004.1
20260505210448 31 250 11.3 12.9 0.00 0.00 0.00 27 1004.0
20260505205944 31 286 11.3 16.1 0.00 0.00 0.00 29 1004.3
20260505205443 31 299 14.5 16.1 0.00 0.00 0.00 27 1004.3
20260505204939 31 269 16.1 16.1 0.00 0.00 0.00 28 1004.4
20260505204437 31 275 14.5 16.1 0.00 0.00 0.00 28 1004.5
20260505203934 31 229 12.9 12.9 0.00 0.00 0.00 28 1004.5
20260505203431 31 287 8.0 9.7 0.00 0.00 0.00 29 1004.5
20260505202927 31 253 11.3 12.9 0.00 0.00 0.00 30 1004.6
20260505202424 31 248 11.3 12.9 0.00 0.00 0.00 31 1004.6
20260505201920 31 254 14.5 16.1 0.00 0.00 0.00 31 1004.8
20260505201417 31 268 12.9 16.1 0.00 0.00 0.00 33 1004.7
20260505200915 31 268 11.3 12.9 0.00 0.00 0.00 34 1004.8
20260505200412 31 250 11.3 12.9 0.00 0.00 0.00 34 1004.9
20260505195908 31 260 12.9 16.1 0.00 0.00 0.00 35 1004.8
20260505195405 31 262 12.9 16.1 0.00 0.00 0.00 36 1004.8
20260505194902 31 334 8.0 11.3 0.00 0.00 0.00 33 1004.9
20260505194400 31 234 14.5 16.1 0.00 0.00 0.00 33 1005.0
20260505193900 31 246 8.0 9.7 0.00 0.00 0.00 37 1005.1
20260505193358 31 280 12.9 12.9 0.00 0.00 0.00 36 1005.1
20260505192855 31 231 12.9 16.1 0.00 0.00 0.00 38 1005.1
20260505192353 30 230 9.7 12.9 0.00 0.00 0.00 40 1005.3
20260505191851 30 257 22.5 24.1 0.00 0.00 0.00 40 1005.1
20260505191349 30 270 11.3 16.1 0.00 0.00 0.00 40 1005.3
20260505190846 30 222 9.7 9.7 0.00 0.00 0.00 41 1005.1
20260505190341 30 243 9.7 9.7 0.00 0.00 0.00 41 1005.1
20260505185837 30 219 8.0 9.7 0.00 0.00 0.00 43 1005.4
20260505185334 30 224 17.7 20.9 0.00 0.00 0.00 40 1005.5
20260505184830 30 285 9.7 12.9 0.00 0.00 0.00 42 1005.6
20260505184327 30 269 9.7 12.9 0.00 0.00 0.00 40 1005.6
20260505183824 29 232 8.0 9.7 0.00 0.00 0.00 42 1005.8
20260505183321 29 224 14.5 16.1 0.00 0.00 0.00 44 1005.7
20260505182817 29 270 11.3 12.9 0.00 0.00 0.00 45 1005.8
20260505182314 29 251 9.7 9.7 0.00 0.00 0.00 42 1005.7
20260505181811 29 259 20.9 24.1 0.00 0.00 0.00 43 1005.7
20260505181308 28 271 9.7 12.9 0.00 0.00 0.00 47 1005.9
20260505180805 29 252 6.4 9.7 0.00 0.00 0.00 47 1005.9
20260505180301 28 270 14.5 16.1 0.00 0.00 0.00 44 1006.0
20260505175758 29 279 12.9 16.1 0.00 0.00 0.00 47 1006.2
20260505175254 28 241 16.1 17.7 0.00 0.00 0.00 46 1005.9
20260505174751 28 241 17.7 20.9 0.00 0.00 0.00 44 1006.3
20260505174248 28 228 24.1 30.6 0.00 0.00 0.00 47 1006.2
20260505173744 28 265 12.9 16.1 0.00 0.00 0.00 50 1006.3
20260505173241 28 246 12.9 16.1 0.00 0.00 0.00 53 1006.0
20260505172738 28 241 14.5 16.1 0.00 0.00 0.00 52 1006.0
20260505172235 27 272 16.1 17.7 0.00 0.00 0.00 51 1006.4
20260505171735 27 245 11.3 12.9 0.00 0.00 0.00 53 1006.2
20260505171232 27 228 14.5 17.7 0.00 0.00 0.00 54 1006.3
20260505170728 27 261 14.5 16.1 0.00 0.00 0.00 56 1006.0
20260505170226 27 220 17.7 20.9 0.00 0.00 0.00 57 1006.0
20260505165721 27 243 11.3 11.3 0.00 0.00 0.00 58 1006.3
20260505165217 27 240 14.5 17.7 0.00 0.00 0.00 57 1006.4
20260505164713 27 196 12.9 12.9 0.00 0.00 0.00 59 1006.2
20260505164210 26 215 14.5 16.1 0.00 0.00 0.00 58 1006.2
20260505163708 26 276 17.7 20.9 0.00 0.00 0.00 60 1006.3
20260505163206 26 237 14.5 17.7 0.00 0.00 0.00 61 1006.4
20260505162703 26 265 17.7 17.7 0.00 0.00 0.00 62 1006.3
20260505162201 26 254 17.7 20.9 0.00 0.00 0.00 61 1006.3
20260505161657 25 279 19.3 24.1 0.00 0.00 0.00 63 1006.3
20260505161154 25 251 14.5 20.9 0.00 0.00 0.00 66 1006.2
20260505160652 25 253 14.5 17.7 0.00 0.00 0.00 64 1006.3
20260505160150 25 249 14.5 17.7 0.00 0.00 0.00 64 1005.9
20260505153129 23 242 12.9 12.9 0.00 0.00 0.00 71 1005.7
20260505152625 23 220 24.1 29.0 0.00 0.00 0.00 70 1005.7
20260505152121 23 245 14.5 12.9 0.00 0.00 0.00 72 1005.7
20260505151617 23 217 16.1 17.7 0.00 0.00 0.00 72 1005.7